Location: Cabrera Baja
(40.4089°N, 4.3354°W)
Time: 02:59:58
(UTC+00:00)

H-2A R/B - Pass Details

Date: 14 July 2020
Orbit: 577 x 656 km, 98.5° (Epoch: 03 August)

Event Time Altitude Azimuth Distance (km) Brightness Sun altitude
Rises 03:38:17 0° 162° (SSE) 2,933 5.3 -13.2°
Reaches altitude 10° 03:40:30 10° 161° (SSE) 2,018 4.4 -12.9°
Maximum altitude 03:44:54 80° 75° (ENE) 642 2.2 -12.3°
Drops below altitude 10° 03:49:13 10° 349° (N) 1,985 5.1 -11.7°
Sets 03:51:23 0° 348° (NNW) 2,882 5.9 -11.4°
